XNO232 EKCH-EYVI

Flight info

Callsign XNO232
Flight time N/A
Altitude 35000
Route SIMEG L987 ETRUS DCT TESPO DCT VEDEN DCT VAGVO DCT NEDAM DCT OTNAV
Aircraft A321/M-SDE3FGHIRWY/LB1

Departure

Time 2026-04-21 20:59
Airport Copenhagen Kastrup Airport (EKCH)

Arrival

Time N/A
Airport Vilnius International Airport (EYVI)
Time Latitude Longitude Altitude Speed Heading
2026-04-21 20:35 55.62718 12.64095 18 ft 0 kts 32°
2026-04-21 20:48 55.62698 12.64071 19 ft 4 kts 38°
2026-04-21 20:48 55.62678 12.64040 18 ft 4 kts 57°
2026-04-21 20:48 55.62672 12.64003 17 ft 3 kts 117°
2026-04-21 20:49 55.62673 12.63997 17 ft 0 kts 123°
2026-04-21 20:52 55.62672 12.63999 17 ft 1 kts 123°
2026-04-21 20:52 55.62658 12.64039 18 ft 5 kts 123°
2026-04-21 20:52 55.62643 12.64077 17 ft 2 kts 123°
2026-04-21 20:52 55.62633 12.64103 18 ft 5 kts 123°
2026-04-21 20:53 55.62600 12.64193 17 ft 9 kts 123°
2026-04-21 20:53 55.62569 12.64279 17 ft 8 kts 123°
2026-04-21 20:53 55.62540 12.64357 17 ft 7 kts 123°
2026-04-21 20:53 55.62514 12.64427 17 ft 6 kts 123°
2026-04-21 20:54 55.62489 12.64473 18 ft 5 kts 151°
2026-04-21 20:54 55.62453 12.64477 17 ft 6 kts 189°
2026-04-21 20:54 55.62404 12.64457 17 ft 9 kts 194°
2026-04-21 20:54 55.62348 12.64431 17 ft 8 kts 195°
2026-04-21 20:55 55.62295 12.64406 17 ft 9 kts 195°
2026-04-21 20:55 55.62223 12.64367 15 ft 12 kts 202°
2026-04-21 20:55 55.62155 12.64308 43 ft 10 kts 205°
2026-04-21 20:55 55.62091 12.64255 17 ft 14 kts 205°
2026-04-21 20:56 55.61999 12.64178 17 ft 12 kts 205°
2026-04-21 20:56 55.61929 12.64121 17 ft 11 kts 205°
2026-04-21 20:56 55.61865 12.64074 17 ft 9 kts 191°
2026-04-21 20:56 55.61803 12.64074 17 ft 8 kts 175°
2026-04-21 20:57 55.61752 12.64081 20 ft 7 kts 176°
2026-04-21 20:57 55.61707 12.64086 18 ft 9 kts 176°
2026-04-21 20:57 55.61659 12.64090 20 ft 4 kts 181°
2026-04-21 20:57 55.61619 12.64063 23 ft 11 kts 214°
2026-04-21 20:58 55.61571 12.63993 20 ft 10 kts 221°
2026-04-21 20:58 55.61390 12.63710 19 ft 70 kts 221°
2026-04-21 20:58 55.60850 12.62875 19 ft 131 kts 221°
2026-04-21 20:58 55.60062 12.61648 58 ft 169 kts 222°
2026-04-21 20:59 55.59210 12.60296 777 ft 159 kts 223°
2026-04-21 20:59 55.58366 12.59002 1357 ft 163 kts 225°
2026-04-21 20:59 55.57505 12.57662 1835 ft 170 kts 224°
2026-04-21 20:59 55.56564 12.56265 2073 ft 189 kts 218°
2026-04-21 21:00 55.55300 12.55288 2270 ft 208 kts 201°
2026-04-21 21:00 55.53868 12.54417 2399 ft 229 kts 200°
2026-04-21 21:00 55.52270 12.53459 2481 ft 259 kts 200°
2026-04-21 21:00 55.50522 12.52414 3135 ft 266 kts 199°
2026-04-21 21:01 55.48757 12.51359 3906 ft 272 kts 199°
2026-04-21 21:01 55.46944 12.50303 4663 ft 276 kts 193°
2026-04-21 21:01 55.45035 12.50096 5409 ft 277 kts 167°
2026-04-21 21:01 55.43276 12.51348 6182 ft 273 kts 141°
2026-04-21 21:02 55.41974 12.53705 6944 ft 269 kts 119°
2026-04-21 21:02 55.41281 12.56729 7695 ft 268 kts 103°
2026-04-21 21:02 55.40764 12.59893 8428 ft 270 kts 104°
2026-04-21 21:02 55.40229 12.63076 9173 ft 273 kts 104°
2026-04-21 21:03 55.39683 12.66299 9886 ft 277 kts 104°
2026-04-21 21:03 55.39124 12.69549 10588 ft 279 kts 104°
2026-04-21 21:03 55.38544 12.72929 10845 ft 299 kts 104°
2026-04-21 21:03 55.37933 12.76533 11114 ft 316 kts 104°
2026-04-21 21:04 55.37282 12.80347 11266 ft 336 kts 104°
2026-04-21 21:04 55.36576 12.84396 11403 ft 356 kts 104°
2026-04-21 21:04 55.35832 12.88633 11740 ft 367 kts 104°
2026-04-21 21:04 55.35074 12.92947 12303 ft 371 kts 104°
2026-04-21 21:05 55.34312 12.97301 12925 ft 374 kts 104°
2026-04-21 21:05 55.33543 13.01687 13549 ft 377 kts 104°
2026-04-21 21:05 55.32767 13.06099 14162 ft 379 kts 104°
2026-04-21 21:05 55.31989 13.10542 14694 ft 382 kts 104°
2026-04-21 21:06 55.31208 13.15011 15203 ft 384 kts 104°
2026-04-21 21:06 55.30425 13.19511 15728 ft 387 kts 104°
2026-04-21 21:06 55.29636 13.24040 16242 ft 389 kts 104°
2026-04-21 21:06 55.28837 13.28591 16760 ft 392 kts 104°
2026-04-21 21:07 55.28030 13.33171 17276 ft 394 kts 104°
2026-04-21 21:07 55.27212 13.37764 17788 ft 397 kts 104°
2026-04-21 21:07 55.26381 13.42404 18298 ft 399 kts 104°
2026-04-21 21:07 55.25708 13.47118 18772 ft 399 kts 96°
2026-04-21 21:08 55.25496 13.51943 19179 ft 397 kts 86°
2026-04-21 21:08 55.25756 13.56742 19607 ft 395 kts 77°
2026-04-21 21:08 55.26305 13.61467 20078 ft 396 kts 76°
2026-04-21 21:08 55.26848 13.66212 20538 ft 398 kts 76°
2026-04-21 21:09 55.27385 13.70988 20994 ft 399 kts 76°
2026-04-21 21:09 55.27917 13.75776 21447 ft 401 kts 76°
2026-04-21 21:09 55.28448 13.80584 21896 ft 402 kts 76°
2026-04-21 21:09 55.28982 13.85411 22335 ft 404 kts 76°
2026-04-21 21:10 55.29516 13.90259 22773 ft 406 kts 76°
2026-04-21 21:10 55.30053 13.95127 23231 ft 407 kts 76°
2026-04-21 21:10 55.30593 14.00032 23638 ft 410 kts 76°
2026-04-21 21:10 55.31131 14.04950 24015 ft 411 kts 76°
2026-04-21 21:11 55.31671 14.09889 24347 ft 413 kts 76°
2026-04-21 21:11 55.32210 14.14850 24676 ft 415 kts 76°
2026-04-21 21:11 55.32747 14.19833 25000 ft 416 kts 76°
2026-04-21 21:11 55.33286 14.24845 25331 ft 418 kts 76°
2026-04-21 21:12 55.33824 14.29874 25649 ft 420 kts 76°
2026-04-21 21:12 55.34363 14.34926 25975 ft 422 kts 76°
2026-04-21 21:12 55.34903 14.40012 26295 ft 424 kts 76°
2026-04-21 21:12 55.35440 14.45094 26678 ft 423 kts 76°
2026-04-21 21:13 55.35974 14.50170 27119 ft 421 kts 76°
2026-04-21 21:13 55.36504 14.55223 27587 ft 420 kts 76°
2026-04-21 21:13 55.37031 14.60259 28039 ft 418 kts 76°
2026-04-21 21:13 55.37556 14.65268 28482 ft 416 kts 76°
2026-04-21 21:14 55.38078 14.70267 28910 ft 415 kts 76°
2026-04-21 21:14 55.38593 14.75252 29331 ft 414 kts 76°
2026-04-21 21:14 55.39106 14.80229 29745 ft 413 kts 76°
2026-04-21 21:14 55.39610 14.85191 30165 ft 412 kts 76°
2026-04-21 21:15 55.40110 14.90143 30495 ft 411 kts 76°
2026-04-21 21:15 55.40610 14.95101 30779 ft 412 kts 76°
2026-04-21 21:15 55.41112 15.00059 31077 ft 412 kts 76°
2026-04-21 21:15 55.41615 15.05026 31390 ft 412 kts 76°
2026-04-21 21:16 55.42114 15.09995 31699 ft 412 kts 76°
2026-04-21 21:16 55.42405 15.15032 32018 ft 418 kts 86°
2026-04-21 21:16 55.42350 15.20157 32295 ft 419 kts 86°
2026-04-21 21:16 55.42280 15.25292 32591 ft 420 kts 86°
2026-04-21 21:17 55.42200 15.30424 32887 ft 420 kts 87°
2026-04-21 21:17 55.42112 15.35561 33210 ft 420 kts 87°
2026-04-21 21:17 55.42024 15.40695 33526 ft 419 kts 87°
2026-04-21 21:17 55.41937 15.45817 33839 ft 419 kts 87°
2026-04-21 21:18 55.41850 15.50946 34149 ft 419 kts 87°
2026-04-21 21:18 55.41761 15.56063 34425 ft 419 kts 87°